Time,TemperatureF,DewpointF,PressureIn,WindDirection,WindDirectionDegrees,WindSpeedMPH,WindSpeedGustMPH,Humidity,HourlyPrecipIn,Conditions,Clouds,dailyrainin,SoftwareType,DateUTC
2013-08-18 00:03:00,75.1,65.1,29.96,ENE,75,11.0,14.0,71,0.00,,---,0.00,VWS V14.01,2013-08-18 05:03:00,
2013-08-18 00:08:00,75.1,65.1,29.96,ENE,71,11.0,15.0,71,0.00,,---,0.00,VWS V14.01,2013-08-18 05:08:00,
2013-08-18 00:13:00,75.0,65.0,29.96,East,85,10.0,15.0,71,0.00,,---,0.00,VWS V14.01,2013-08-18 05:13:00,
2013-08-18 00:18:00,74.9,64.9,29.96,East,84,8.0,15.0,71,0.00,,---,0.00,VWS V14.01,2013-08-18 05:18:00,
2013-08-18 00:23:00,74.8,65.2,29.95,East,83,4.0,15.0,72,0.00,,---,0.00,VWS V14.01,2013-08-18 05:23:00,
2013-08-18 00:28:00,74.6,65.0,29.95,ENE,75,6.0,15.0,72,0.00,,---,0.00,VWS V14.01,2013-08-18 05:28:00,
2013-08-18 00:33:00,74.5,64.9,29.95,East,86,6.0,10.0,72,0.00,,---,0.00,VWS V14.01,2013-08-18 05:33:00,
2013-08-18 00:39:00,74.5,64.9,29.95,SE,135,5.0,10.0,72,0.00,,---,0.00,VWS V14.01,2013-08-18 05:39:00,
2013-08-18 00:44:00,74.4,64.8,29.95,SE,129,5.0,12.0,72,0.00,,---,0.00,VWS V14.01,2013-08-18 05:44:00,
2013-08-18 00:49:00,74.3,65.1,29.96,East,101,9.0,12.0,73,0.00,,---,0.00,VWS V14.01,2013-08-18 05:49:00,
2013-08-18 00:54:00,74.3,65.1,29.96,East,79,7.0,12.0,73,0.00,,---,0.00,VWS V14.01,2013-08-18 05:54:00,
2013-08-18 00:59:00,74.1,64.9,29.96,ESE,110,5.0,12.0,73,0.00,,---,0.00,VWS V14.01,2013-08-18 05:59:00,
2013-08-18 01:04:00,74.0,65.2,29.96,SE,134,5.0,8.0,74,0.00,,---,0.00,VWS V14.01,2013-08-18 06:04:00,
2013-08-18 01:09:00,73.8,65.0,29.96,ESE,108,4.0,12.0,74,0.00,,---,0.00,VWS V14.01,2013-08-18 06:09:00,
2013-08-18 01:14:00,73.7,64.9,29.96,SE,124,7.0,12.0,74,0.00,,---,0.00,VWS V14.01,2013-08-18 06:14:00,
2013-08-18 01:19:00,73.5,65.1,29.96,East,99,6.0,12.0,75,0.00,,---,0.00,VWS V14.01,2013-08-18 06:19:00,
2013-08-18 01:24:00,73.4,65.0,29.96,East,80,8.0,12.0,75,0.00,,---,0.00,VWS V14.01,2013-08-18 06:24:00,
2013-08-18 01:29:00,73.2,64.8,29.96,East,91,9.0,12.0,75,0.00,,---,0.00,VWS V14.01,2013-08-18 06:29:00,
2013-08-18 01:34:00,73.1,65.1,29.95,East,80,6.0,12.0,76,0.00,,---,0.00,VWS V14.01,2013-08-18 06:34:00,
2013-08-18 01:40:00,72.9,64.9,29.94,East,90,10.0,12.0,76,0.00,,---,0.00,VWS V14.01,2013-08-18 06:40:00,
2013-08-18 01:45:00,72.9,64.9,29.94,ENE,66,7.0,16.0,76,0.00,,---,0.00,VWS V14.01,2013-08-18 06:45:00,
2013-08-18 01:50:00,72.9,64.9,29.94,ENE,76,6.0,16.0,76,0.00,,---,0.00,VWS V14.01,2013-08-18 06:50:00,
2013-08-18 01:55:00,72.7,64.7,29.95,East,98,4.0,16.0,76,0.00,,---,0.00,VWS V14.01,2013-08-18 06:55:00,
2013-08-18 02:00:00,72.6,65.0,29.95,ENE,77,5.0,16.0,77,0.00,,---,0.00,VWS V14.01,2013-08-18 07:00:00,
2013-08-18 02:05:00,72.6,65.0,29.95,East,98,4.0,10.0,77,0.00,,---,0.00,VWS V14.01,2013-08-18 07:05:00,
2013-08-18 02:10:00,72.6,65.0,29.95,East,86,4.0,10.0,77,0.00,,---,0.00,VWS V14.01,2013-08-18 07:10:00,
2013-08-18 02:15:00,72.5,64.9,29.95,ENE,69,6.0,11.0,77,0.00,,---,0.00,VWS V14.01,2013-08-18 07:15:00,
2013-08-18 02:20:00,72.4,64.8,29.95,ENE,77,4.0,11.0,77,0.00,,---,0.00,VWS V14.01,2013-08-18 07:20:00,
2013-08-18 02:25:00,72.3,65.1,29.95,East,91,4.0,11.0,78,0.00,,---,0.00,VWS V14.01,2013-08-18 07:25:00,
2013-08-18 02:30:00,72.2,65.0,29.96,East,89,4.0,5.0,78,0.00,,---,0.00,VWS V14.01,2013-08-18 07:30:00,
2013-08-18 02:36:00,72.0,64.8,29.95,East,86,5.0,11.0,78,0.00,,---,0.00,VWS V14.01,2013-08-18 07:36:00,
2013-08-18 02:41:00,71.9,64.7,29.95,East,86,5.0,11.0,78,0.00,,---,0.00,VWS V14.01,2013-08-18 07:41:00,
2013-08-18 02:46:00,71.9,64.7,29.95,ENE,68,7.0,11.0,78,0.00,,---,0.00,VWS V14.01,2013-08-18 07:46:00,
2013-08-18 02:51:00,71.7,64.5,29.96,South,181,5.0,11.0,78,0.00,,---,0.00,VWS V14.01,2013-08-18 07:51:00,
2013-08-18 02:56:00,71.7,64.5,29.95,East,86,5.0,11.0,78,0.00,,---,0.00,VWS V14.01,2013-08-18 07:56:00,
2013-08-18 03:01:00,71.6,64.4,29.95,East,91,7.0,7.0,78,0.00,,---,0.00,VWS V14.01,2013-08-18 08:01:00,
2013-08-18 03:06:00,71.5,64.3,29.95,East,81,5.0,10.0,78,0.00,,---,0.00,VWS V14.01,2013-08-18 08:06:00,
2013-08-18 03:11:00,71.4,64.2,29.95,East,100,5.0,10.0,78,0.00,,---,0.00,VWS V14.01,2013-08-18 08:11:00,
2013-08-18 03:16:00,71.3,64.1,29.95,East,81,7.0,10.0,78,0.00,,---,0.00,VWS V14.01,2013-08-18 08:16:00,
2013-08-18 03:21:00,71.2,64.4,29.95,ESE,108,5.0,10.0,79,0.00,,---,0.00,VWS V14.01,2013-08-18 08:21:00,
2013-08-18 03:26:00,71.0,64.2,29.95,East,96,5.0,10.0,79,0.00,,---,0.00,VWS V14.01,2013-08-18 08:26:00,
2013-08-18 03:31:00,71.0,64.2,29.95,ESE,114,7.0,10.0,79,0.00,,---,0.00,VWS V14.01,2013-08-18 08:31:00,
2013-08-18 03:37:00,70.9,64.1,29.95,East,86,8.0,11.0,79,0.00,,---,0.00,VWS V14.01,2013-08-18 08:37:00,
2013-08-18 03:42:00,70.9,64.1,29.96,East,82,5.0,11.0,79,0.00,,---,0.00,VWS V14.01,2013-08-18 08:42:00,
2013-08-18 03:47:00,70.7,63.9,29.95,East,91,6.0,11.0,79,0.00,,---,0.00,VWS V14.01,2013-08-18 08:47:00,
2013-08-18 03:52:00,70.6,64.1,29.95,ENE,76,6.0,11.0,80,0.00,,---,0.00,VWS V14.01,2013-08-18 08:52:00,
2013-08-18 03:57:00,70.5,64.0,29.95,East,101,2.0,11.0,80,0.00,,---,0.00,VWS V14.01,2013-08-18 08:57:00,
2013-08-18 04:02:00,70.4,63.9,29.96,East,79,4.0,5.0,80,0.00,,---,0.00,VWS V14.01,2013-08-18 09:02:00,
2013-08-18 04:07:00,70.3,63.8,29.95,East,81,3.0,7.0,80,0.00,,---,0.00,VWS V14.01,2013-08-18 09:07:00,
2013-08-18 04:12:00,70.2,63.8,29.96,East,91,5.0,8.0,80,0.00,,---,0.00,VWS V14.01,2013-08-18 09:12:00,
2013-08-18 04:17:00,70.1,63.7,29.95,ESE,112,4.0,8.0,80,0.00,,---,0.00,VWS V14.01,2013-08-18 09:17:00,
2013-08-18 04:22:00,70.1,64.0,29.95,East,83,5.0,10.0,81,0.00,,---,0.00,VWS V14.01,2013-08-18 09:22:00,
2013-08-18 04:27:00,69.9,63.8,29.95,East,83,3.0,10.0,81,0.00,,---,0.00,VWS V14.01,2013-08-18 09:27:00,
2013-08-18 04:32:00,69.7,63.6,29.96,East,90,5.0,8.0,81,0.00,,---,0.00,VWS V14.01,2013-08-18 09:32:00,
2013-08-18 04:38:00,69.7,63.6,29.96,East,83,3.0,8.0,81,0.00,,---,0.00,VWS V14.01,2013-08-18 09:38:00,
2013-08-18 04:43:00,69.6,63.9,29.96,ESE,115,4.0,8.0,82,0.00,,---,0.00,VWS V14.01,2013-08-18 09:43:00,
2013-08-18 04:48:00,69.5,63.8,29.96,ESE,104,2.0,8.0,82,0.00,,---,0.00,VWS V14.01,2013-08-18 09:48:00,
2013-08-18 04:53:00,69.3,63.6,29.96,East,83,3.0,8.0,82,0.00,,---,0.00,VWS V14.01,2013-08-18 09:53:00,
2013-08-18 04:58:00,69.1,63.7,29.96,East,81,4.0,8.0,83,0.00,,---,0.00,VWS V14.01,2013-08-18 09:58:00,
2013-08-18 05:03:00,69.0,63.6,29.96,East,91,5.0,7.0,83,0.00,,---,0.00,VWS V14.01,2013-08-18 10:03:00,
2013-08-18 05:08:00,68.9,63.5,29.96,East,91,6.0,7.0,83,0.00,,---,0.00,VWS V14.01,2013-08-18 10:08:00,
2013-08-18 05:13:00,68.8,63.8,29.96,SE,124,3.0,7.0,84,0.00,,---,0.00,VWS V14.01,2013-08-18 10:13:00,
2013-08-18 05:18:00,68.8,63.8,29.96,ESE,120,4.0,7.0,84,0.00,,---,0.00,VWS V14.01,2013-08-18 10:18:00,
2013-08-18 05:23:00,68.8,63.8,29.96,ENE,70,5.0,7.0,84,0.00,,---,0.00,VWS V14.01,2013-08-18 10:23:00,
2013-08-18 05:28:00,68.7,63.7,29.96,East,91,6.0,7.0,84,0.00,,---,0.00,VWS V14.01,2013-08-18 10:28:00,
2013-08-18 05:33:00,68.6,63.6,29.96,ENE,76,6.0,7.0,84,0.00,,---,0.00,VWS V14.01,2013-08-18 10:33:00,
2013-08-18 05:39:00,68.6,63.6,29.96,ENE,77,5.0,7.0,84,0.00,,---,0.00,VWS V14.01,2013-08-18 10:39:00,
2013-08-18 05:44:00,68.6,63.6,29.96,East,86,5.0,8.0,84,0.00,,---,0.00,VWS V14.01,2013-08-18 10:44:00,
2013-08-18 05:49:00,68.6,63.6,29.96,East,98,2.0,8.0,84,0.00,,---,0.00,VWS V14.01,2013-08-18 10:49:00,
2013-08-18 05:54:00,68.6,63.6,29.96,East,88,2.0,8.0,84,0.00,,---,0.00,VWS V14.01,2013-08-18 10:54:00,
2013-08-18 05:59:00,68.5,63.5,29.97,ENE,71,2.0,8.0,84,0.00,,---,0.00,VWS V14.01,2013-08-18 10:59:00,
2013-08-18 06:04:00,68.5,63.5,29.97,East,96,3.0,6.0,84,0.00,,---,0.00,VWS V14.01,2013-08-18 11:04:00,
2013-08-18 06:09:00,68.4,63.4,29.96,ENE,74,4.0,6.0,84,0.00,,---,0.00,VWS V14.01,2013-08-18 11:09:00,
2013-08-18 06:14:00,68.2,63.5,29.97,East,84,1.0,6.0,85,0.00,,---,0.00,VWS V14.01,2013-08-18 11:14:00,
2013-08-18 06:19:00,68.1,63.4,29.97,ENE,75,2.0,6.0,85,0.00,,---,0.00,VWS V14.01,2013-08-18 11:19:00,
2013-08-18 06:24:00,67.9,63.2,29.97,East,82,3.0,6.0,85,0.00,,---,0.00,VWS V14.01,2013-08-18 11:24:00,
2013-08-18 06:29:00,67.8,63.5,29.97,East,81,3.0,6.0,86,0.00,,---,0.00,VWS V14.01,2013-08-18 11:29:00,
2013-08-18 06:35:00,67.7,63.4,29.97,ENE,77,2.0,5.0,86,0.00,,---,0.00,VWS V14.01,2013-08-18 11:35:00,
2013-08-18 06:40:00,67.5,63.2,29.98,East,90,4.0,5.0,86,0.00,,---,0.00,VWS V14.01,2013-08-18 11:40:00,
2013-08-18 06:45:00,67.4,63.1,29.98,East,82,4.0,5.0,86,0.00,,---,0.00,VWS V14.01,2013-08-18 11:45:00,
2013-08-18 06:50:00,67.3,63.3,29.98,East,96,1.0,5.0,87,0.00,,---,0.00,VWS V14.01,2013-08-18 11:50:00,
2013-08-18 06:55:00,67.2,63.2,29.98,East,86,4.0,5.0,87,0.00,,---,0.00,VWS V14.01,2013-08-18 11:55:00,
2013-08-18 07:00:00,67.1,63.1,29.98,East,79,2.0,5.0,87,0.00,,---,0.00,VWS V14.01,2013-08-18 12:00:00,
2013-08-18 07:05:00,67.1,63.1,29.98,ENE,76,3.0,5.0,87,0.00,,---,0.00,VWS V14.01,2013-08-18 12:05:00,
2013-08-18 07:10:00,67.1,63.1,29.98,East,80,3.0,5.0,87,0.00,,---,0.00,VWS V14.01,2013-08-18 12:10:00,
2013-08-18 07:15:00,67.1,63.1,29.98,ENE,71,3.0,5.0,87,0.00,,---,0.00,VWS V14.01,2013-08-18 12:15:00,
2013-08-18 07:20:00,67.1,62.8,29.99,ENE,77,5.0,6.0,86,0.00,,---,0.00,VWS V14.01,2013-08-18 12:20:00,
2013-08-18 07:25:00,67.3,63.0,29.99,ENE,73,3.0,6.0,86,0.00,,---,0.00,VWS V14.01,2013-08-18 12:25:00,
2013-08-18 07:31:00,67.4,63.1,29.99,East,83,4.0,4.0,86,0.00,,---,0.00,VWS V14.01,2013-08-18 12:31:00,
2013-08-18 07:36:00,67.5,63.2,29.99,East,96,6.0,7.0,86,0.00,,---,0.00,VWS V14.01,2013-08-18 12:36:00,
2013-08-18 07:41:00,67.6,63.3,29.99,ENE,71,3.0,7.0,86,0.00,,---,0.00,VWS V14.01,2013-08-18 12:41:00,
2013-08-18 07:46:00,67.7,63.4,29.99,ENE,75,8.0,9.0,86,0.00,,---,0.00,VWS V14.01,2013-08-18 12:46:00,
2013-08-18 07:51:00,67.8,63.1,29.99,ENE,67,4.0,9.0,85,0.00,,---,0.00,VWS V14.01,2013-08-18 12:51:00,
2013-08-18 07:56:00,67.9,63.2,29.99,ENE,77,6.0,9.0,85,0.00,,---,0.00,VWS V14.01,2013-08-18 12:56:00,
2013-08-18 08:01:00,68.0,63.3,29.99,ENE,72,3.0,7.0,85,0.00,,---,0.00,VWS V14.01,2013-08-18 13:01:00,
2013-08-18 08:06:00,68.3,63.6,30.00,East,91,5.0,10.0,85,0.00,,---,0.00,VWS V14.01,2013-08-18 13:06:00,
2013-08-18 08:11:00,68.4,63.4,30.00,East,96,2.0,11.0,84,0.00,,---,0.00,VWS V14.01,2013-08-18 13:11:00,
2013-08-18 08:16:00,68.5,63.5,30.00,ENE,78,4.0,11.0,84,0.00,,---,0.00,VWS V14.01,2013-08-18 13:16:00,
2013-08-18 08:21:00,68.8,63.4,30.00,ENE,66,3.0,11.0,83,0.00,,---,0.00,VWS V14.01,2013-08-18 13:21:00,
2013-08-18 08:26:00,69.1,63.4,30.00,ESE,110,6.0,11.0,82,0.00,,---,0.00,VWS V14.01,2013-08-18 13:26:00,
2013-08-18 08:32:00,69.4,63.7,30.00,ESE,117,5.0,7.0,82,0.00,,---,0.00,VWS V14.01,2013-08-18 13:32:00,
2013-08-18 08:37:00,69.8,63.7,30.00,ENE,77,7.0,11.0,81,0.00,,---,0.00,VWS V14.01,2013-08-18 13:37:00,
2013-08-18 08:42:00,70.3,63.8,30.01,East,86,3.0,11.0,80,0.00,,---,0.00,VWS V14.01,2013-08-18 13:42:00,
2013-08-18 08:47:00,70.8,64.0,30.01,ENE,67,5.0,11.0,79,0.00,,---,0.00,VWS V14.01,2013-08-18 13:47:00,
2013-08-18 08:52:00,71.3,64.5,30.01,ENE,72,5.0,11.0,79,0.00,,---,0.00,VWS V14.01,2013-08-18 13:52:00,
2013-08-18 08:57:00,71.2,64.0,30.01,East,83,9.0,11.0,78,0.00,,---,0.00,VWS V14.01,2013-08-18 13:57:00,
2013-08-18 09:02:00,71.6,64.4,30.01,East,96,4.0,7.0,78,0.00,,---,0.00,VWS V14.01,2013-08-18 14:02:00,
2013-08-18 09:07:00,72.3,64.3,30.01,ENE,73,9.0,10.0,76,0.00,,---,0.00,VWS V14.01,2013-08-18 14:07:00,
2013-08-18 09:12:00,72.5,64.1,30.01,SE,127,7.0,11.0,75,0.00,,---,0.00,VWS V14.01,2013-08-18 14:12:00,
2013-08-18 09:17:00,72.7,64.3,30.01,ESE,104,12.0,12.0,75,0.00,,---,0.00,VWS V14.01,2013-08-18 14:17:00,
2013-08-18 09:22:00,73.2,64.4,30.01,SSE,152,2.0,12.0,74,0.00,,---,0.00,VWS V14.01,2013-08-18 14:22:00,
2013-08-18 09:27:00,73.3,64.1,30.01,ESE,110,4.0,12.0,73,0.00,,---,0.00,VWS V14.01,2013-08-18 14:27:00,
2013-08-18 09:33:00,73.5,64.3,30.01,East,86,7.0,10.0,73,0.00,,---,0.00,VWS V14.01,2013-08-18 14:33:00,
2013-08-18 09:38:00,74.1,64.1,30.01,East,79,5.0,11.0,71,0.00,,---,0.00,VWS V14.01,2013-08-18 14:38:00,
2013-08-18 09:43:00,75.1,65.1,30.01,SE,134,5.0,12.0,71,0.00,,---,0.00,VWS V14.01,2013-08-18 14:43:00,
2013-08-18 09:48:00,75.4,64.5,30.01,ENE,63,5.0,12.0,69,0.00,,---,0.00,VWS V14.01,2013-08-18 14:48:00,
2013-08-18 09:53:00,75.5,64.2,30.01,ENE,76,15.0,15.0,68,0.00,,---,0.00,VWS V14.01,2013-08-18 14:53:00,
2013-08-18 09:58:00,75.6,64.3,30.02,ENE,64,10.0,15.0,68,0.00,,---,0.00,VWS V14.01,2013-08-18 14:58:00,
2013-08-18 10:03:00,76.0,64.7,30.01,ESE,115,9.0,11.0,68,0.00,,---,0.00,VWS V14.01,2013-08-18 15:03:00,
2013-08-18 10:08:00,76.3,64.6,30.01,ESE,117,5.0,13.0,67,0.00,,---,0.00,VWS V14.01,2013-08-18 15:08:00,
2013-08-18 10:13:00,76.8,64.2,30.01,ESE,115,5.0,13.0,65,0.00,,---,0.00,VWS V14.01,2013-08-18 15:13:00,
2013-08-18 10:18:00,77.2,65.0,30.01,ESE,117,6.0,13.0,66,0.00,,---,0.00,VWS V14.01,2013-08-18 15:18:00,
2013-08-18 10:23:00,77.5,64.4,30.01,ESE,104,9.0,13.0,64,0.00,,---,0.00,VWS V14.01,2013-08-18 15:23:00,
2013-08-18 10:28:00,77.9,64.8,30.01,SE,134,6.0,14.0,64,0.00,,---,0.00,VWS V14.01,2013-08-18 15:28:00,
2013-08-18 10:33:00,78.8,64.7,30.01,SSE,156,4.0,12.0,62,0.00,,---,0.00,VWS V14.01,2013-08-18 15:33:00,
2013-08-18 10:39:00,79.0,63.9,30.01,East,79,10.0,13.0,60,0.00,,---,0.00,VWS V14.01,2013-08-18 15:39:00,
2013-08-18 10:44:00,78.9,64.3,30.01,East,85,6.0,13.0,61,0.00,,---,0.00,VWS V14.01,2013-08-18 15:44:00,
2013-08-18 10:49:00,79.3,64.2,30.01,East,96,6.0,13.0,60,0.00,,---,0.00,VWS V14.01,2013-08-18 15:49:00,
2013-08-18 10:54:00,79.8,64.2,30.01,SE,136,6.0,14.0,59,0.00,,---,0.00,VWS V14.01,2013-08-18 15:54:00,
2013-08-18 10:59:00,80.6,65.0,30.01,SE,124,9.0,14.0,59,0.00,,---,0.00,VWS V14.01,2013-08-18 15:59:00,
2013-08-18 11:04:00,81.0,63.8,30.01,SE,146,5.0,15.0,56,0.00,,---,0.00,VWS V14.01,2013-08-18 16:04:00,
2013-08-18 11:09:00,81.4,64.2,30.01,SE,132,7.0,15.0,56,0.00,,---,0.00,VWS V14.01,2013-08-18 16:09:00,
2013-08-18 11:14:00,81.7,63.5,30.01,SE,128,11.0,15.0,54,0.00,,---,0.00,VWS V14.01,2013-08-18 16:14:00,
2013-08-18 11:19:00,81.6,63.4,30.01,ESE,114,7.0,15.0,54,0.00,,---,0.00,VWS V14.01,2013-08-18 16:19:00,
2013-08-18 11:24:00,82.4,63.6,30.01,ESE,121,9.0,15.0,53,0.00,,---,0.00,VWS V14.01,2013-08-18 16:24:00,
2013-08-18 11:29:00,82.4,63.6,30.00,SE,127,6.0,15.0,53,0.00,,---,0.00,VWS V14.01,2013-08-18 16:29:00,
2013-08-18 11:34:00,81.7,62.9,30.00,East,84,7.0,15.0,53,0.00,,---,0.00,VWS V14.01,2013-08-18 16:34:00,
2013-08-18 11:40:00,81.7,63.5,30.00,SE,132,7.0,15.0,54,0.00,,---,0.00,VWS V14.01,2013-08-18 16:40:00,
2013-08-18 11:45:00,82.3,62.9,30.00,South,176,6.0,15.0,52,0.00,,---,0.00,VWS V14.01,2013-08-18 16:45:00,
2013-08-18 11:50:00,82.8,63.4,30.00,ESE,107,6.0,15.0,52,0.00,,---,0.00,VWS V14.01,2013-08-18 16:50:00,
2013-08-18 11:55:00,83.3,63.3,30.00,East,94,6.0,15.0,51,0.00,,---,0.00,VWS V14.01,2013-08-18 16:55:00,
2013-08-18 12:00:00,83.9,63.3,29.99,East,91,7.0,16.0,50,0.00,,---,0.00,VWS V14.01,2013-08-18 17:00:00,
2013-08-18 12:05:00,84.6,63.9,29.99,SSE,159,8.0,13.0,50,0.00,,---,0.00,VWS V14.01,2013-08-18 17:05:00,
2013-08-18 12:10:00,85.2,63.9,29.99,South,179,6.0,13.0,49,0.00,,---,0.00,VWS V14.01,2013-08-18 17:10:00,
2013-08-18 12:15:00,85.2,63.9,29.99,South,183,10.0,13.0,49,0.00,,---,0.00,VWS V14.01,2013-08-18 17:15:00,
2013-08-18 12:20:00,85.2,63.9,29.99,SSE,165,9.0,13.0,49,0.00,,---,0.00,VWS V14.01,2013-08-18 17:20:00,
2013-08-18 12:25:00,85.3,63.4,29.99,SE,139,3.0,14.0,48,0.00,,---,0.00,VWS V14.01,2013-08-18 17:25:00,
2013-08-18 12:30:00,85.6,63.7,29.99,SSE,163,8.0,13.0,48,0.00,,---,0.00,VWS V14.01,2013-08-18 17:30:00,
2013-08-18 12:35:00,85.8,63.9,29.99,SSE,153,7.0,13.0,48,0.00,,---,0.00,VWS V14.01,2013-08-18 17:35:00,
2013-08-18 12:41:00,86.3,63.7,29.99,ENE,77,6.0,14.0,47,0.00,,---,0.00,VWS V14.01,2013-08-18 17:41:00,
2013-08-18 12:46:00,86.0,63.4,29.98,South,169,8.0,14.0,47,0.00,,---,0.00,VWS V14.01,2013-08-18 17:46:00,
2013-08-18 12:51:00,85.9,62.7,29.98,South,180,6.0,15.0,46,0.00,,---,0.00,VWS V14.01,2013-08-18 17:51:00,
2013-08-18 12:56:00,86.2,63.6,29.98,ESE,105,9.0,15.0,47,0.00,,---,0.00,VWS V14.01,2013-08-18 17:56:00,
2013-08-18 13:01:00,86.5,62.7,29.98,SSE,152,8.0,10.0,45,0.00,,---,0.00,VWS V14.01,2013-08-18 18:01:00,
2013-08-18 13:06:00,86.8,62.9,29.98,ESE,122,5.0,15.0,45,0.00,,---,0.00,VWS V14.01,2013-08-18 18:06:00,
2013-08-18 13:11:00,87.3,63.4,29.98,East,96,11.0,15.0,45,0.00,,---,0.00,VWS V14.01,2013-08-18 18:11:00,
2013-08-18 13:16:00,87.5,63.6,29.97,ESE,114,7.0,15.0,45,0.00,,---,0.00,VWS V14.01,2013-08-18 18:16:00,
2013-08-18 13:21:00,87.6,63.0,29.97,SE,136,7.0,15.0,44,0.00,,---,0.00,VWS V14.01,2013-08-18 18:21:00,
2013-08-18 13:26:00,88.1,62.8,29.97,SE,135,12.0,15.0,43,0.00,,---,0.00,VWS V14.01,2013-08-18 18:26:00,
2013-08-18 13:31:00,87.9,62.6,29.96,SE,136,8.0,15.0,43,0.00,,---,0.00,VWS V14.01,2013-08-18 18:31:00,
2013-08-18 13:37:00,88.1,63.5,29.96,East,94,12.0,15.0,44,0.00,,---,0.00,VWS V14.01,2013-08-18 18:37:00,
2013-08-18 13:42:00,88.3,62.3,29.96,SE,146,11.0,16.0,42,0.00,,---,0.00,VWS V14.01,2013-08-18 18:42:00,
2013-08-18 13:47:00,88.4,63.1,29.95,SSE,158,11.0,16.0,43,0.00,,---,0.00,VWS V14.01,2013-08-18 18:47:00,
2013-08-18 13:52:00,88.4,62.4,29.95,SE,135,5.0,16.0,42,0.00,,---,0.00,VWS V14.01,2013-08-18 18:52:00,
2013-08-18 13:57:00,88.8,62.1,29.95,South,170,9.0,16.0,41,0.00,,---,0.00,VWS V14.01,2013-08-18 18:57:00,
2013-08-18 14:02:00,89.1,63.0,29.95,East,94,6.0,11.0,42,0.00,,---,0.00,VWS V14.01,2013-08-18 19:02:00,
2013-08-18 14:07:00,89.1,61.7,29.95,SE,139,10.0,13.0,40,0.00,,---,0.00,VWS V14.01,2013-08-18 19:07:00,
2013-08-18 14:12:00,88.8,61.4,29.95,SE,129,12.0,14.0,40,0.00,,---,0.00,VWS V14.01,2013-08-18 19:12:00,
2013-08-18 14:17:00,89.0,62.3,29.95,SSE,152,6.0,17.0,41,0.00,,---,0.00,VWS V14.01,2013-08-18 19:17:00,
2013-08-18 14:22:00,89.5,62.7,29.94,East,91,6.0,17.0,41,0.00,,---,0.00,VWS V14.01,2013-08-18 19:22:00,
2013-08-18 14:27:00,89.6,62.1,29.94,SSE,153,4.0,17.0,40,0.00,,---,0.00,VWS V14.01,2013-08-18 19:27:00,
2013-08-18 14:32:00,89.7,61.5,29.94,SSE,147,9.0,15.0,39,0.00,,---,0.00,VWS V14.01,2013-08-18 19:32:00,
2013-08-18 14:38:00,90.0,62.5,29.94,ESE,115,6.0,15.0,40,0.00,,---,0.00,VWS V14.01,2013-08-18 19:38:00,
2013-08-18 14:43:00,90.3,62.7,29.94,SSE,149,9.0,15.0,40,0.00,,---,0.00,VWS V14.01,2013-08-18 19:43:00,
2013-08-18 14:48:00,90.2,61.2,29.94,SE,138,4.0,15.0,38,0.00,,---,0.00,VWS V14.01,2013-08-18 19:48:00,
2013-08-18 14:53:00,90.2,61.2,29.94,ESE,110,8.0,16.0,38,0.00,,---,0.00,VWS V14.01,2013-08-18 19:53:00,
2013-08-18 14:58:00,90.2,60.4,29.93,East,83,7.0,16.0,37,0.00,,---,0.00,VWS V14.01,2013-08-18 19:58:00,
2013-08-18 15:03:00,90.4,62.1,29.93,East,101,7.0,14.0,39,0.00,,---,0.00,VWS V14.01,2013-08-18 20:03:00,
2013-08-18 15:08:00,90.4,61.4,29.93,SE,125,7.0,16.0,38,0.00,,---,0.00,VWS V14.01,2013-08-18 20:08:00,
2013-08-18 15:13:00,90.7,61.6,29.93,SE,143,11.0,16.0,38,0.00,,---,0.00,VWS V14.01,2013-08-18 20:13:00,
2013-08-18 15:18:00,90.7,60.1,29.93,SSE,150,9.0,16.0,36,0.00,,---,0.00,VWS V14.01,2013-08-18 20:18:00,
2013-08-18 15:23:00,91.0,60.4,29.92,SSE,149,7.0,16.0,36,0.00,,---,0.00,VWS V14.01,2013-08-18 20:23:00,
2013-08-18 15:28:00,90.9,60.3,29.92,SE,136,12.0,16.0,36,0.00,,---,0.00,VWS V14.01,2013-08-18 20:28:00,
2013-08-18 15:33:00,90.9,61.0,29.92,SSW,194,12.0,14.0,37,0.00,,---,0.00,VWS V14.01,2013-08-18 20:33:00,
2013-08-18 15:39:00,90.9,61.0,29.92,East,94,13.0,17.0,37,0.00,,---,0.00,VWS V14.01,2013-08-18 20:39:00,
2013-08-18 15:44:00,91.0,61.9,29.92,East,96,5.0,17.0,38,0.00,,---,0.00,VWS V14.01,2013-08-18 20:44:00,
2013-08-18 15:49:00,91.1,62.0,29.92,SSE,159,8.0,17.0,38,0.00,,---,0.00,VWS V14.01,2013-08-18 20:49:00,
2013-08-18 15:54:00,91.1,61.2,29.92,ESE,115,6.0,18.0,37,0.00,,---,0.00,VWS V14.01,2013-08-18 20:54:00,
2013-08-18 15:59:00,91.5,60.0,29.92,East,86,5.0,18.0,35,0.00,,---,0.00,VWS V14.01,2013-08-18 20:59:00,
2013-08-18 16:04:00,91.7,61.8,29.91,ESE,104,6.0,14.0,37,0.00,,---,0.00,VWS V14.01,2013-08-18 21:04:00,
2013-08-18 16:09:00,91.7,61.0,29.91,South,181,13.0,16.0,36,0.00,,---,0.00,VWS V14.01,2013-08-18 21:09:00,
2013-08-18 16:14:00,91.4,59.1,29.91,SSE,159,8.0,16.0,34,0.00,,---,0.00,VWS V14.01,2013-08-18 21:14:00,
2013-08-18 16:19:00,90.9,61.8,29.91,East,100,7.0,17.0,38,0.00,,---,0.00,VWS V14.01,2013-08-18 21:19:00,
2013-08-18 16:24:00,90.7,60.1,29.91,SSE,159,9.0,18.0,36,0.00,,---,0.00,VWS V14.01,2013-08-18 21:24:00,
2013-08-18 16:29:00,90.9,62.5,29.91,ESE,119,7.0,18.0,39,0.00,,---,0.00,VWS V14.01,2013-08-18 21:29:00,
2013-08-18 16:34:00,90.9,61.0,29.91,SE,145,10.0,20.0,37,0.00,,---,0.00,VWS V14.01,2013-08-18 21:34:00,
2013-08-18 16:40:00,91.2,61.3,29.91,ESE,106,8.0,20.0,37,0.00,,---,0.00,VWS V14.01,2013-08-18 21:40:00,
2013-08-18 16:45:00,90.8,61.0,29.91,East,79,7.0,21.0,37,0.00,,---,0.00,VWS V14.01,2013-08-18 21:45:00,
2013-08-18 16:50:00,90.9,61.0,29.90,SE,131,8.0,21.0,37,0.00,,---,0.00,VWS V14.01,2013-08-18 21:50:00,
2013-08-18 16:55:00,90.8,61.7,29.90,East,100,13.0,21.0,38,0.00,,---,0.00,VWS V14.01,2013-08-18 21:55:00,
2013-08-18 17:00:00,90.7,61.6,29.90,SE,129,10.0,21.0,38,0.00,,---,0.00,VWS V14.01,2013-08-18 22:00:00,
2013-08-18 17:05:00,91.0,61.1,29.90,SSE,155,13.0,16.0,37,0.00,,---,0.00,VWS V14.01,2013-08-18 22:05:00,
2013-08-18 17:10:00,91.2,61.3,29.90,East,83,12.0,16.0,37,0.00,,---,0.00,VWS V14.01,2013-08-18 22:10:00,
2013-08-18 17:15:00,90.9,61.8,29.90,SSE,149,7.0,17.0,38,0.00,,---,0.00,VWS V14.01,2013-08-18 22:15:00,
2013-08-18 17:20:00,90.9,61.8,29.90,SSE,162,13.0,17.0,38,0.00,,---,0.00,VWS V14.01,2013-08-18 22:20:00,
2013-08-18 17:25:00,90.7,61.6,29.90,SSE,166,13.0,18.0,38,0.00,,---,0.00,VWS V14.01,2013-08-18 22:25:00,
2013-08-18 17:30:00,90.4,61.4,29.90,SE,136,9.0,17.0,38,0.00,,---,0.00,VWS V14.01,2013-08-18 22:30:00,
2013-08-18 17:35:00,90.5,61.5,29.90,East,90,10.0,17.0,38,0.00,,---,0.00,VWS V14.01,2013-08-18 22:35:00,
2013-08-18 17:41:00,90.6,61.5,29.89,SE,134,8.0,17.0,38,0.00,,---,0.00,VWS V14.01,2013-08-18 22:41:00,
2013-08-18 17:46:00,90.4,61.4,29.89,ESE,112,6.0,17.0,38,0.00,,---,0.00,VWS V14.01,2013-08-18 22:46:00,
2013-08-18 17:51:00,90.4,61.4,29.89,SE,131,14.0,17.0,38,0.00,,---,0.00,VWS V14.01,2013-08-18 22:51:00,
2013-08-18 17:56:00,90.3,62.0,29.89,SE,138,7.0,17.0,39,0.00,,---,0.00,VWS V14.01,2013-08-18 22:56:00,
2013-08-18 18:01:00,90.2,62.6,29.89,East,84,7.0,9.0,40,0.00,,---,0.00,VWS V14.01,2013-08-18 23:01:00,
2013-08-18 18:06:00,90.4,62.8,29.89,SSE,150,8.0,15.0,40,0.00,,---,0.00,VWS V14.01,2013-08-18 23:06:00,
2013-08-18 18:11:00,90.2,62.6,29.89,ESE,115,6.0,15.0,40,0.00,,---,0.00,VWS V14.01,2013-08-18 23:11:00,
2013-08-18 18:16:00,90.2,62.6,29.89,SE,124,9.0,19.0,40,0.00,,---,0.00,VWS V14.01,2013-08-18 23:16:00,
2013-08-18 18:21:00,90.1,62.5,29.88,South,169,14.0,19.0,40,0.00,,---,0.00,VWS V14.01,2013-08-18 23:21:00,
2013-08-18 18:26:00,90.1,62.5,29.88,ESE,115,6.0,19.0,40,0.00,,---,0.00,VWS V14.01,2013-08-18 23:26:00,
2013-08-18 18:31:00,89.9,62.4,29.88,SE,145,8.0,10.0,40,0.00,,---,0.00,VWS V14.01,2013-08-18 23:31:00,
2013-08-18 18:36:00,89.9,62.4,29.88,SE,131,8.0,15.0,40,0.00,,---,0.00,VWS V14.01,2013-08-18 23:36:00,
2013-08-18 18:42:00,89.8,63.0,29.88,SE,138,5.0,15.0,41,0.00,,---,0.00,VWS V14.01,2013-08-18 23:42:00,
2013-08-18 18:47:00,89.5,62.7,29.88,ENE,75,6.0,15.0,41,0.00,,---,0.00,VWS V14.01,2013-08-18 23:47:00,
2013-08-18 18:52:00,89.2,63.1,29.88,ESE,104,7.0,15.0,42,0.00,,---,0.00,VWS V14.01,2013-08-18 23:52:00,
2013-08-18 18:57:00,89.2,63.1,29.88,ESE,115,7.0,16.0,42,0.00,,---,0.00,VWS V14.01,2013-08-18 23:57:00,
2013-08-18 19:02:00,88.8,62.8,29.88,ESE,111,5.0,15.0,42,0.00,,---,0.00,VWS V14.01,2013-08-19 00:02:00,
2013-08-18 19:07:00,88.6,62.6,29.88,East,98,6.0,15.0,42,0.00,,---,0.00,VWS V14.01,2013-08-19 00:07:00,
2013-08-18 19:12:00,88.4,63.1,29.88,SE,143,5.0,15.0,43,0.00,,---,0.00,VWS V14.01,2013-08-19 00:12:00,
2013-08-18 19:17:00,88.2,62.9,29.88,ESE,117,6.0,15.0,43,0.00,,---,0.00,VWS V14.01,2013-08-19 00:17:00,
2013-08-18 19:22:00,88.0,63.4,29.88,ESE,105,8.0,15.0,44,0.00,,---,0.00,VWS V14.01,2013-08-19 00:22:00,
2013-08-18 19:27:00,87.8,62.5,29.88,East,99,4.0,15.0,43,0.00,,---,0.00,VWS V14.01,2013-08-19 00:27:00,
2013-08-18 19:32:00,87.5,62.9,29.88,East,100,7.0,11.0,44,0.00,,---,0.00,VWS V14.01,2013-08-19 00:32:00,
2013-08-18 19:38:00,87.2,62.7,29.88,East,82,6.0,11.0,44,0.00,,---,0.00,VWS V14.01,2013-08-19 00:38:00,
2013-08-18 19:43:00,86.9,63.0,29.88,ESE,102,5.0,14.0,45,0.00,,---,0.00,VWS V14.01,2013-08-19 00:43:00,
2013-08-18 19:48:00,86.6,62.8,29.88,ESE,120,7.0,14.0,45,0.00,,---,0.00,VWS V14.01,2013-08-19 00:48:00,
2013-08-18 19:53:00,86.3,62.5,29.88,ESE,111,8.0,14.0,45,0.00,,---,0.00,VWS V14.01,2013-08-19 00:53:00,
2013-08-18 19:58:00,86.1,62.3,29.88,East,86,9.0,15.0,45,0.00,,---,0.00,VWS V14.01,2013-08-19 00:58:00,
2013-08-18 20:03:00,85.8,62.7,29.88,ESE,111,5.0,11.0,46,0.00,,---,0.00,VWS V14.01,2013-08-19 01:03:00,
2013-08-18 20:08:00,85.4,62.3,29.88,SE,124,8.0,14.0,46,0.00,,---,0.00,VWS V14.01,2013-08-19 01:08:00,
2013-08-18 20:13:00,85.1,62.6,29.88,East,95,6.0,14.0,47,0.00,,---,0.00,VWS V14.01,2013-08-19 01:13:00,
2013-08-18 20:18:00,84.7,62.3,29.89,ESE,108,9.0,14.0,47,0.00,,---,0.00,VWS V14.01,2013-08-19 01:18:00,
2013-08-18 20:23:00,84.4,62.6,29.89,East,94,7.0,15.0,48,0.00,,---,0.00,VWS V14.01,2013-08-19 01:23:00,
2013-08-18 20:28:00,84.2,62.4,29.89,SE,127,4.0,15.0,48,0.00,,---,0.00,VWS V14.01,2013-08-19 01:28:00,
2013-08-18 20:33:00,83.9,62.7,29.89,SSE,149,6.0,9.0,49,0.00,,---,0.00,VWS V14.01,2013-08-19 01:33:00,
2013-08-18 20:39:00,83.7,62.5,29.89,ESE,118,3.0,11.0,49,0.00,,---,0.00,VWS V14.01,2013-08-19 01:39:00,
2013-08-18 20:44:00,83.5,62.3,29.89,ESE,117,5.0,11.0,49,0.00,,---,0.00,VWS V14.01,2013-08-19 01:44:00,
2013-08-18 20:49:00,83.3,62.7,29.90,SE,146,6.0,11.0,50,0.00,,---,0.00,VWS V14.01,2013-08-19 01:49:00,
2013-08-18 20:54:00,82.9,62.9,29.90,East,99,6.0,11.0,51,0.00,,---,0.00,VWS V14.01,2013-08-19 01:54:00,
2013-08-18 20:59:00,82.6,62.7,29.90,East,98,9.0,11.0,51,0.00,,---,0.00,VWS V14.01,2013-08-19 01:59:00,
2013-08-18 21:04:00,82.3,62.9,29.90,SE,134,2.0,8.0,52,0.00,,---,0.00,VWS V14.01,2013-08-19 02:04:00,
2013-08-18 21:09:00,82.2,62.8,29.90,ENE,60,4.0,8.0,52,0.00,,---,0.00,VWS V14.01,2013-08-19 02:09:00,
2013-08-18 21:14:00,82.0,62.7,29.90,East,94,6.0,10.0,52,0.00,,---,0.00,VWS V14.01,2013-08-19 02:14:00,
2013-08-18 21:19:00,82.0,63.2,29.90,SE,137,6.0,11.0,53,0.00,,---,0.00,VWS V14.01,2013-08-19 02:19:00,
2013-08-18 21:24:00,81.9,63.1,29.90,East,98,7.0,12.0,53,0.00,,---,0.00,VWS V14.01,2013-08-19 02:24:00,
2013-08-18 21:29:00,81.8,63.0,29.90,East,90,7.0,12.0,53,0.00,,---,0.00,VWS V14.01,2013-08-19 02:29:00,
2013-08-18 21:34:00,81.9,63.1,29.91,ESE,102,7.0,10.0,53,0.00,,---,0.00,VWS V14.01,2013-08-19 02:34:00,
2013-08-18 21:39:00,81.8,62.5,29.91,East,82,4.0,10.0,52,0.00,,---,0.00,VWS V14.01,2013-08-19 02:39:00,
2013-08-18 21:45:00,81.7,62.4,29.91,East,86,8.0,11.0,52,0.00,,---,0.00,VWS V14.01,2013-08-19 02:45:00,
2013-08-18 21:50:00,81.6,62.3,29.91,ESE,103,6.0,11.0,52,0.00,,---,0.00,VWS V14.01,2013-08-19 02:50:00,
2013-08-18 21:55:00,81.6,62.3,29.91,ENE,72,7.0,11.0,52,0.00,,---,0.00,VWS V14.01,2013-08-19 02:55:00,
2013-08-18 22:00:00,81.5,62.2,29.91,SE,124,5.0,11.0,52,0.00,,---,0.00,VWS V14.01,2013-08-19 03:00:00,
2013-08-18 22:05:00,81.4,62.1,29.91,ENE,78,5.0,10.0,52,0.00,,---,0.00,VWS V14.01,2013-08-19 03:05:00,
2013-08-18 22:10:00,81.4,62.1,29.92,East,91,13.0,13.0,52,0.00,,---,0.00,VWS V14.01,2013-08-19 03:10:00,
2013-08-18 22:15:00,81.4,62.1,29.92,SE,124,4.0,13.0,52,0.00,,---,0.00,VWS V14.01,2013-08-19 03:15:00,
2013-08-18 22:20:00,81.4,62.6,29.92,East,86,8.0,13.0,53,0.00,,---,0.00,VWS V14.01,2013-08-19 03:20:00,
2013-08-18 22:25:00,81.3,62.5,29.92,SE,133,4.0,13.0,53,0.00,,---,0.00,VWS V14.01,2013-08-19 03:25:00,
2013-08-18 22:30:00,81.1,62.9,29.92,East,86,4.0,5.0,54,0.00,,---,0.00,VWS V14.01,2013-08-19 03:30:00,
2013-08-18 22:35:00,81.0,62.8,29.92,East,94,4.0,13.0,54,0.00,,---,0.00,VWS V14.01,2013-08-19 03:35:00,
2013-08-18 22:41:00,80.8,62.6,29.92,ESE,105,4.0,13.0,54,0.00,,---,0.00,VWS V14.01,2013-08-19 03:41:00,
2013-08-18 22:46:00,80.8,63.1,29.93,ESE,107,9.0,13.0,55,0.00,,---,0.00,VWS V14.01,2013-08-19 03:46:00,
2013-08-18 22:51:00,80.6,63.0,29.93,East,97,8.0,13.0,55,0.00,,---,0.00,VWS V14.01,2013-08-19 03:51:00,
2013-08-18 22:56:00,80.4,62.8,29.93,East,98,5.0,13.0,55,0.00,,---,0.00,VWS V14.01,2013-08-19 03:56:00,
2013-08-18 23:01:00,80.4,63.3,29.93,East,101,6.0,6.0,56,0.00,,---,0.00,VWS V14.01,2013-08-19 04:01:00,
2013-08-18 23:03:00,80.4,63.3,29.93,SE,139,7.0,10.0,56,0.00,,---,0.00,VWS V14.01,2013-08-19 04:03:00,
2013-08-18 23:08:00,80.3,63.2,29.93,SE,124,5.0,13.0,56,0.00,,---,0.00,VWS V14.01,2013-08-19 04:08:00,
2013-08-18 23:13:00,80.2,63.1,29.93,SE,124,4.0,13.0,56,0.00,,---,0.00,VWS V14.01,2013-08-19 04:13:00,
2013-08-18 23:18:00,80.1,63.0,29.94,East,82,5.0,13.0,56,0.00,,---,0.00,VWS V14.01,2013-08-19 04:18:00,
2013-08-18 23:23:00,80.1,63.0,29.94,ESE,123,7.0,13.0,56,0.00,,---,0.00,VWS V14.01,2013-08-19 04:23:00,
2013-08-18 23:28:00,80.1,63.0,29.93,ESE,113,7.0,13.0,56,0.00,,---,0.00,VWS V14.01,2013-08-19 04:28:00,
2013-08-18 23:33:00,80.0,62.9,29.93,East,98,5.0,11.0,56,0.00,,---,0.00,VWS V14.01,2013-08-19 04:33:00,
2013-08-18 23:38:00,79.9,62.8,29.93,ESE,102,6.0,11.0,56,0.00,,---,0.00,VWS V14.01,2013-08-19 04:38:00,
2013-08-18 23:43:00,79.8,62.7,29.93,ESE,107,9.0,11.0,56,0.00,,---,0.00,VWS V14.01,2013-08-19 04:43:00,
2013-08-18 23:48:00,79.7,62.6,29.93,ESE,117,9.0,11.0,56,0.00,,---,0.00,VWS V14.01,2013-08-19 04:48:00,
2013-08-18 23:54:00,79.6,62.5,29.93,East,83,7.0,11.0,56,0.00,,---,0.00,VWS V14.01,2013-08-19 04:54:00,
2013-08-18 23:59:00,79.5,63.0,29.94,SSE,149,5.0,11.0,57,0.00,,---,0.00,VWS V14.01,2013-08-19 04:59:00,